Location: Izdebno
(52.6670°N, 16.2170°E)
Time: 12:38:49
(UTC+02:00)

A-11 Canister half - Pass Details

Date: 27 February 2024
Orbit: 1525 x 1683 km, 47.3° (Epoch: 24 April)

Event Time Altitude Azimuth Distance (km) Brightness Sun altitude
Rises 20:37:44 0° 229° (SW) 4,771 11.9 -28.7°
Reaches altitude 10° 20:40:59 10° 224° (SW) 3,767 11.2 -29.1°
Enters shadow 20:49:04 46° 169° (SSE) 1,975 9.2 -30.2°
